STARLINK-32271, 60368

Orbit data source: Space-Track

STARLINK-32271, 60368 is a payload satellite owned by SpaceX/Seattle (US) in LEO that was launched on Sun, 04 Aug 2024 UTC via an FALCON 9 launch vehicle from the Air Force Western Test Range (AFWTR). Payload-class satellites include a variety of spacecraft equipped with specific instruments for various scientific and technological missions. These include communications satellites like Starlink; space stations such as the ISS; scientific satellites like the Hubble; Earth observation satellites from companies like Planet Labs, Umbra, and HawkEye 360; GPS; miniature CubeSats for education and research; and military/defense satellites.

Loading next visibility...
Identifier
60368, 2024-138P
Orbit
LEO
Country
Flag of USUS
Related business
Manufacturer
SpaceX/Seattle
Mission
Operational Commercial Communications
Bus & Motor
STARLINK V2M, Unknown motor
Mass
730 kg wet, ~700 kg dry
Launch date (UTC)
2024-08-04 (2 years ago)
Launch vehicle
FALCON 9
Launch site
Air Force Western Test Range (AFWTR)
Object type
Payload
Rocket body
Debris
Shape & HBR
Box + 2 Pan, 17.7 m
Radar Cross Section
33.884 m², Large (>1 m²)

Expand to show TLE details & history
Last TLE update: 1 day ago

TLE from 1 day ago
0 STARLINK-32271
1 60368U 24138P   26257.41895842  .00000017  00000-0  11657-4 0  9996
2 60368  53.1601 152.2158 0001194  97.9315 262.1823 15.34378919119537
Epoch: 2026-09-14T10:03Z
TLE epoch observation values (Epoch: 2026-09-14T10:03:18.007Z)
Latitude
-0.00003°
Longitude
7.99122°
Altitude
463.778 km
Speed
7.636 km/s
True Right ascension
10h 08m 51s
True Declination
0° 00' 00"
Sunlit
Object was in daylight at epoch
Visualization orbit readout
Latitude
Unknown
Longitude
Unknown
Altitude
Unknown
Speed
Unknown
Apparent Right ascension
Unknown
Apparent Declination
Unknown
Sunlit
N/A
Visualization observer readout
Local Sidereal Time
08:41:30
Azimuth
Unknown
Elevation
Unknown
Doppler factor
Unknown
Orbital elements
Apogee altitude
463.84 km
Perigee altitude
462.206 km
Semi-major axis
6,841.16 km
Eccentricity
0.00012
Inclination
53.1601°
RAAN
152.2158°
Arg. of periapsis
97.9315°
True anomaly
262.16875°
Mean anomaly
262.1823°
Eccentric anomaly
262.17552°
Mean motion
3.83573 °/min
Orbital period
93.85 mins
BSTAR
0.000011657
Loading maneuver chart data...
Computing Atmospheric mass density...
Loading historical data...
Loading historical data...
Loading historical data...
Loading historical data...
Loading historical data...
Loading historical data...
Loading historical data...

Documentation

Showing up to 5 results
|